カタログに戻る

STARLINK-36972

運用中通信VLEO
NORAD 68072·PAYLOAD·🇺🇸 United States

打ち上げ Mar 4, 2026 から Vandenberg Space Force Base

Loading…

次のパス (今後24時間)

TLE

最新Source: CelesTrak SupGP

元期: Sep 15, 2026, 03:22 UTC

1 68072C 26042D   26258.14076389  .00057131  00000+0  16884-2 0  2581
2 68072  53.1595  14.5274 0001204  92.8770 145.4626 15.34354091    10

AllMySatでSTARLINK-36972をリアルタイム追跡

Download on the App Store